Time,TemperatureF,DewpointF,PressureIn,WindDirection,WindDirectionDegrees,WindSpeedMPH,WindSpeedGustMPH,Humidity,HourlyPrecipIn,Conditions,Clouds,dailyrainin,SoftwareType,DateUTC
2013-08-04 00:00:00,64.0,59.0,29.84,NW,315,0.0,1.0,85,0.00,,,0.00,TxWx,2013-08-04 04:00:00,
2013-08-04 00:31:00,64.0,60.0,29.84,WNW,292,2.0,2.0,86,0.00,,,0.00,TxWx,2013-08-04 04:31:00,
2013-08-04 00:45:00,63.0,59.0,29.84,North,0,1.0,1.0,87,0.00,,,0.00,TxWx,2013-08-04 04:45:00,
2013-08-04 00:50:00,63.0,59.0,29.83,North,0,1.0,1.0,87,0.00,,,0.00,TxWx,2013-08-04 04:50:00,
2013-08-04 00:56:00,63.0,59.0,29.84,North,0,0.0,0.0,88,0.00,,,0.00,TxWx,2013-08-04 04:56:00,
2013-08-04 01:01:00,63.0,59.0,29.84,NNW,337,1.0,1.0,88,0.00,,,0.00,TxWx,2013-08-04 05:01:00,
2013-08-04 01:06:00,63.0,59.0,29.84,North,0,1.0,1.0,88,0.00,,,0.00,TxWx,2013-08-04 05:06:00,
2013-08-04 01:11:00,63.0,59.0,29.84,ENE,67,0.0,0.0,88,0.00,,,0.00,TxWx,2013-08-04 05:11:00,
2013-08-04 01:17:00,63.0,60.0,29.84,NE,45,3.0,3.0,89,0.00,,,0.00,TxWx,2013-08-04 05:17:00,
2013-08-04 01:22:00,63.0,60.0,29.84,NNW,337,1.0,2.0,89,0.00,,,0.00,TxWx,2013-08-04 05:22:00,
2013-08-04 01:28:00,63.0,60.0,29.84,NW,315,1.0,1.0,89,0.00,,,0.00,TxWx,2013-08-04 05:28:00,
2013-08-04 01:33:00,63.0,60.0,29.84,West,270,1.0,1.0,89,0.00,,,0.00,TxWx,2013-08-04 05:33:00,
2013-08-04 01:38:00,63.0,60.0,29.84,WNW,292,1.0,1.0,89,0.00,,,0.00,TxWx,2013-08-04 05:38:00,
2013-08-04 01:44:00,63.0,60.0,29.84,North,0,1.0,1.0,90,0.00,,,0.00,TxWx,2013-08-04 05:44:00,
2013-08-04 01:49:00,63.0,60.0,29.84,West,270,0.0,1.0,90,0.00,,,0.00,TxWx,2013-08-04 05:49:00,
2013-08-04 01:54:00,62.0,59.0,29.84,SW,225,0.0,0.0,90,0.00,,,0.00,TxWx,2013-08-04 05:54:00,
2013-08-04 01:59:00,62.0,59.0,29.84,South,180,0.0,1.0,90,0.00,,,0.00,TxWx,2013-08-04 05:59:00,
2013-08-04 02:04:00,62.0,59.0,29.84,NW,315,1.0,2.0,90,0.00,,,0.00,TxWx,2013-08-04 06:04:00,
2013-08-04 02:09:00,62.0,59.0,29.84,NNW,337,1.0,1.0,90,0.00,,,0.00,TxWx,2013-08-04 06:09:00,
2013-08-04 02:15:00,62.0,59.0,29.84,North,0,0.0,0.0,90,0.00,,,0.00,TxWx,2013-08-04 06:15:00,
2013-08-04 02:20:00,61.0,58.0,29.84,West,270,0.0,0.0,90,0.00,,,0.00,TxWx,2013-08-04 06:20:00,
2013-08-04 02:25:00,61.0,58.0,29.84,NNW,337,0.0,1.0,91,0.00,,,0.00,TxWx,2013-08-04 06:25:00,
2013-08-04 02:30:00,61.0,58.0,29.84,North,0,1.0,1.0,91,0.00,,,0.00,TxWx,2013-08-04 06:30:00,
2013-08-04 02:36:00,61.0,58.0,29.84,NNW,337,1.0,1.0,91,0.00,,,0.00,TxWx,2013-08-04 06:36:00,
2013-08-04 02:41:00,61.0,58.0,29.84,NW,315,1.0,1.0,91,0.00,,,0.00,TxWx,2013-08-04 06:41:00,
2013-08-04 02:46:00,61.0,58.0,29.84,WSW,247,1.0,1.0,91,0.00,,,0.00,TxWx,2013-08-04 06:46:00,
2013-08-04 02:51:00,61.0,58.0,29.84,NNE,22,1.0,1.0,91,0.00,,,0.00,TxWx,2013-08-04 06:51:00,
2013-08-04 02:57:00,61.0,58.0,29.84,NNW,337,3.0,3.0,91,0.00,,,0.00,TxWx,2013-08-04 06:57:00,
2013-08-04 03:02:00,61.0,58.0,29.84,ESE,112,1.0,1.0,91,0.00,,,0.00,TxWx,2013-08-04 07:02:00,
2013-08-04 03:07:00,61.0,58.0,29.83,NW,315,1.0,1.0,92,0.00,,,0.00,TxWx,2013-08-04 07:07:00,
2013-08-04 03:13:00,61.0,58.0,29.83,ENE,67,0.0,1.0,92,0.00,,,0.00,TxWx,2013-08-04 07:13:00,
2013-08-04 03:18:00,61.0,58.0,29.83,West,270,1.0,1.0,92,0.00,,,0.00,TxWx,2013-08-04 07:18:00,
2013-08-04 03:23:00,61.0,59.0,29.83,WNW,292,1.0,2.0,92,0.00,,,0.00,TxWx,2013-08-04 07:23:00,
2013-08-04 03:28:00,61.0,59.0,29.83,ENE,67,2.0,3.0,92,0.00,,,0.00,TxWx,2013-08-04 07:28:00,
2013-08-04 03:33:00,61.0,59.0,29.83,NW,315,1.0,1.0,92,0.00,,,0.00,TxWx,2013-08-04 07:33:00,
2013-08-04 03:39:00,61.0,59.0,29.83,WNW,292,1.0,1.0,92,0.00,,,0.00,TxWx,2013-08-04 07:39:00,
2013-08-04 03:44:00,61.0,59.0,29.83,WNW,292,1.0,1.0,93,0.00,,,0.00,TxWx,2013-08-04 07:44:00,
2013-08-04 03:49:00,61.0,59.0,29.84,NW,315,1.0,1.0,93,0.00,,,0.00,TxWx,2013-08-04 07:49:00,
2013-08-04 03:54:00,61.0,59.0,29.84,NW,315,1.0,2.0,93,0.00,,,0.00,TxWx,2013-08-04 07:54:00,
2013-08-04 03:59:00,61.0,59.0,29.83,NW,315,1.0,2.0,93,0.00,,,0.00,TxWx,2013-08-04 07:59:00,
2013-08-04 04:04:00,61.0,59.0,29.83,NE,45,1.0,1.0,93,0.00,,,0.00,TxWx,2013-08-04 08:04:00,
2013-08-04 04:09:00,61.0,59.0,29.83,NE,45,3.0,3.0,93,0.00,,,0.00,TxWx,2013-08-04 08:09:00,
2013-08-04 04:15:00,61.0,59.0,29.83,ENE,67,1.0,1.0,93,0.00,,,0.00,TxWx,2013-08-04 08:15:00,
2013-08-04 04:20:00,61.0,59.0,29.83,SSE,157,1.0,1.0,93,0.00,,,0.00,TxWx,2013-08-04 08:20:00,
2013-08-04 04:25:00,61.0,59.0,29.83,WNW,292,1.0,1.0,93,0.00,,,0.00,TxWx,2013-08-04 08:25:00,
2013-08-04 04:31:00,61.0,59.0,29.83,West,270,1.0,1.0,93,0.00,,,0.00,TxWx,2013-08-04 08:31:00,
2013-08-04 04:36:00,61.0,58.0,29.83,WNW,292,1.0,1.0,93,0.00,,,0.00,TxWx,2013-08-04 08:36:00,
2013-08-04 04:41:00,60.0,58.0,29.83,NNW,337,1.0,1.0,94,0.00,,,0.00,TxWx,2013-08-04 08:41:00,
2013-08-04 04:47:00,61.0,59.0,29.83,NNW,337,1.0,2.0,94,0.00,,,0.00,TxWx,2013-08-04 08:47:00,
2013-08-04 04:52:00,61.0,59.0,29.83,NNW,337,3.0,3.0,94,0.00,,,0.00,TxWx,2013-08-04 08:52:00,
2013-08-04 04:57:00,61.0,59.0,29.83,NNW,337,3.0,3.0,94,0.00,,,0.00,TxWx,2013-08-04 08:57:00,
2013-08-04 05:02:00,62.0,60.0,29.83,NNW,337,2.0,2.0,94,0.00,,,0.00,TxWx,2013-08-04 09:02:00,
2013-08-04 05:07:00,62.0,60.0,29.83,North,0,1.0,1.0,94,0.00,,,0.00,TxWx,2013-08-04 09:07:00,
2013-08-04 05:12:00,62.0,60.0,29.83,West,270,1.0,1.0,94,0.00,,,0.00,TxWx,2013-08-04 09:12:00,
2013-08-04 05:17:00,62.0,60.0,29.83,WSW,247,0.0,1.0,94,0.00,,,0.00,TxWx,2013-08-04 09:17:00,
2013-08-04 05:23:00,62.0,60.0,29.83,NNW,337,0.0,1.0,94,0.00,,,0.00,TxWx,2013-08-04 09:23:00,
2013-08-04 05:27:00,61.0,59.0,29.83,West,270,1.0,1.0,94,0.00,,,0.00,TxWx,2013-08-04 09:27:00,
2013-08-04 05:33:00,61.0,59.0,29.83,North,0,1.0,1.0,94,0.00,,,0.00,TxWx,2013-08-04 09:33:00,
2013-08-04 05:38:00,61.0,59.0,29.84,West,270,0.0,0.0,94,0.00,,,0.00,TxWx,2013-08-04 09:38:00,
2013-08-04 05:43:00,61.0,59.0,29.84,NNE,22,1.0,1.0,94,0.00,,,0.00,TxWx,2013-08-04 09:43:00,
2013-08-04 05:48:00,61.0,59.0,29.84,NW,315,1.0,1.0,94,0.00,,,0.00,TxWx,2013-08-04 09:48:00,
2013-08-04 05:54:00,61.0,59.0,29.84,SSW,202,1.0,1.0,95,0.00,,,0.00,TxWx,2013-08-04 09:54:00,
2013-08-04 05:59:00,61.0,59.0,29.84,SSW,202,1.0,1.0,95,0.00,,,0.00,TxWx,2013-08-04 09:59:00,
2013-08-04 06:05:00,61.0,59.0,29.84,South,180,1.0,1.0,95,0.00,,,0.00,TxWx,2013-08-04 10:05:00,
2013-08-04 06:10:00,61.0,59.0,29.84,WNW,292,1.0,1.0,95,0.00,,,0.00,TxWx,2013-08-04 10:10:00,
2013-08-04 06:15:00,61.0,59.0,29.84,NNE,22,1.0,2.0,95,0.00,,,0.00,TxWx,2013-08-04 10:15:00,
2013-08-04 06:21:00,60.0,58.0,29.84,North,0,0.0,0.0,95,0.00,,,0.00,TxWx,2013-08-04 10:21:00,
2013-08-04 06:26:00,60.0,58.0,29.84,West,270,0.0,0.0,95,0.00,,,0.00,TxWx,2013-08-04 10:26:00,
2013-08-04 06:31:00,60.0,58.0,29.84,NW,315,1.0,1.0,95,0.00,,,0.00,TxWx,2013-08-04 10:31:00,
2013-08-04 06:36:00,60.0,58.0,29.84,West,270,1.0,1.0,95,0.00,,,0.00,TxWx,2013-08-04 10:36:00,
2013-08-04 06:42:00,60.0,59.0,29.84,WNW,292,2.0,2.0,95,0.00,,,0.00,TxWx,2013-08-04 10:42:00,
2013-08-04 06:47:00,61.0,60.0,29.84,WNW,292,1.0,1.0,95,0.00,,,0.00,TxWx,2013-08-04 10:47:00,
2013-08-04 06:52:00,61.0,60.0,29.84,NW,315,1.0,1.0,95,0.00,,,0.00,TxWx,2013-08-04 10:52:00,
2013-08-04 06:58:00,62.0,61.0,29.84,NNW,337,1.0,2.0,95,0.00,,,0.00,TxWx,2013-08-04 10:58:00,
2013-08-04 07:03:00,62.0,61.0,29.85,NW,315,1.0,1.0,96,0.00,,,0.00,TxWx,2013-08-04 11:03:00,
2013-08-04 07:08:00,63.0,62.0,29.85,NNE,22,1.0,2.0,96,0.00,,,0.00,TxWx,2013-08-04 11:08:00,
2013-08-04 07:09:00,63.0,62.0,29.85,North,0,1.0,1.0,96,0.00,,,0.00,TxWx,2013-08-04 11:09:00,
2013-08-04 07:15:00,63.0,62.0,29.85,NW,315,1.0,1.0,96,0.00,,,0.00,TxWx,2013-08-04 11:15:00,
2013-08-04 07:20:00,63.0,62.0,29.85,WNW,292,1.0,1.0,96,0.00,,,0.00,TxWx,2013-08-04 11:20:00,
2013-08-04 07:25:00,64.0,63.0,29.85,WSW,247,1.0,1.0,96,0.00,,,0.00,TxWx,2013-08-04 11:25:00,
2013-08-04 07:30:00,65.0,64.0,29.85,WNW,292,1.0,1.0,96,0.00,,,0.00,TxWx,2013-08-04 11:30:00,
2013-08-04 07:35:00,66.0,65.0,29.85,SSW,202,1.0,1.0,96,0.00,,,0.00,TxWx,2013-08-04 11:35:00,
2013-08-04 07:40:00,67.0,66.0,29.85,West,270,1.0,1.0,96,0.00,,,0.00,TxWx,2013-08-04 11:40:00,
2013-08-04 07:45:00,68.0,67.0,29.85,WSW,247,1.0,1.0,96,0.00,,,0.00,TxWx,2013-08-04 11:45:00,
2013-08-04 07:51:00,68.0,67.0,29.85,WSW,247,1.0,1.0,96,0.00,,,0.00,TxWx,2013-08-04 11:51:00,
2013-08-04 07:56:00,69.0,68.0,29.85,NE,45,1.0,1.0,96,0.00,,,0.00,TxWx,2013-08-04 11:56:00,
2013-08-04 08:01:00,69.0,68.0,29.85,ESE,112,3.0,3.0,96,0.00,,,0.00,TxWx,2013-08-04 12:01:00,
2013-08-04 08:06:00,69.0,67.0,29.85,SSE,157,2.0,3.0,95,0.00,,,0.00,TxWx,2013-08-04 12:06:00,
2013-08-04 08:11:00,69.0,66.0,29.85,SSE,157,4.0,5.0,92,0.00,,,0.00,TxWx,2013-08-04 12:11:00,
2013-08-04 08:16:00,69.0,65.0,29.85,ESE,112,3.0,4.0,88,0.00,,,0.00,TxWx,2013-08-04 12:16:00,
2013-08-04 08:22:00,69.0,64.0,29.84,SE,135,4.0,5.0,85,0.00,,,0.00,TxWx,2013-08-04 12:22:00,
2013-08-04 08:27:00,70.0,65.0,29.84,ESE,112,3.0,4.0,83,0.00,,,0.00,TxWx,2013-08-04 12:27:00,
2013-08-04 08:32:00,70.0,64.0,29.84,ESE,112,4.0,5.0,81,0.00,,,0.00,TxWx,2013-08-04 12:32:00,
2013-08-04 08:37:00,71.0,64.0,29.84,NW,315,1.0,1.0,80,0.00,,,0.00,TxWx,2013-08-04 12:37:00,
2013-08-04 08:43:00,72.0,65.0,29.84,East,90,3.0,5.0,78,0.00,,,0.00,TxWx,2013-08-04 12:43:00,
2013-08-04 08:48:00,72.0,64.0,29.84,ESE,112,3.0,3.0,77,0.00,,,0.00,TxWx,2013-08-04 12:48:00,
2013-08-04 08:49:00,79.0,55.0,29.82,SE,135,6.0,10.0,44,0.00,,,0.46,TxWx,2013-08-04 12:49:00,
2013-08-04 08:50:00,79.0,55.0,29.82,ENE,67,8.0,8.0,44,0.00,,,0.46,TxWx,2013-08-04 12:50:00,
2013-08-04 08:52:00,72.0,63.0,29.84,ESE,112,5.0,5.0,74,0.00,,,0.00,TxWx,2013-08-04 12:52:00,
2013-08-04 08:53:00,79.0,55.0,29.82,ENE,67,5.0,6.0,44,0.00,,,0.46,TxWx,2013-08-04 12:53:00,
2013-08-04 08:55:00,79.0,55.0,29.83,ENE,67,10.0,11.0,44,0.00,,,0.46,TxWx,2013-08-04 12:55:00,
2013-08-04 08:56:00,79.0,55.0,29.83,East,90,7.0,9.0,44,0.00,,,0.46,TxWx,2013-08-04 12:56:00,
2013-08-04 08:57:00,79.0,55.0,29.83,SSE,157,9.0,10.0,44,0.00,,,0.46,TxWx,2013-08-04 12:57:00,
2013-08-04 08:58:00,73.0,64.0,29.84,East,90,3.0,3.0,73,0.00,,,0.00,TxWx,2013-08-04 12:58:00,
2013-08-04 09:03:00,73.0,64.0,29.84,ENE,67,10.0,11.0,73,0.00,,,0.00,TxWx,2013-08-04 13:03:00,
2013-08-04 09:04:00,79.0,55.0,29.83,ESE,112,7.0,8.0,44,0.00,,,0.46,TxWx,2013-08-04 13:04:00,
2013-08-04 09:07:00,79.0,55.0,29.83,SE,135,4.0,6.0,44,0.00,,,0.46,TxWx,2013-08-04 13:07:00,
2013-08-04 09:08:00,73.0,63.0,29.84,ENE,67,5.0,6.0,72,0.00,,,0.00,TxWx,2013-08-04 13:08:00,
2013-08-04 09:09:00,79.0,55.0,29.83,ENE,67,6.0,8.0,44,0.00,,,0.46,TxWx,2013-08-04 13:09:00,
2013-08-04 09:10:00,79.0,55.0,29.83,East,90,10.0,10.0,43,0.00,,,0.46,TxWx,2013-08-04 13:10:00,
2013-08-04 09:13:00,73.0,63.0,29.84,East,90,6.0,6.0,71,0.00,,,0.00,TxWx,2013-08-04 13:13:00,
2013-08-04 09:14:00,79.0,54.0,29.83,East,90,12.0,15.0,43,0.00,,,0.46,TxWx,2013-08-04 13:14:00,
2013-08-04 09:16:00,78.0,54.0,29.83,SSE,157,8.0,12.0,43,0.00,,,0.46,TxWx,2013-08-04 13:16:00,
2013-08-04 09:18:00,78.0,54.0,29.83,SE,135,4.0,5.0,43,0.00,,,0.46,TxWx,2013-08-04 13:18:00,
2013-08-04 09:19:00,73.0,62.0,29.84,East,90,3.0,4.0,70,0.00,,,0.00,TxWx,2013-08-04 13:19:00,
2013-08-04 09:21:00,78.0,54.0,29.83,East,90,8.0,10.0,43,0.00,,,0.46,TxWx,2013-08-04 13:21:00,
2013-08-04 09:22:00,78.0,54.0,29.83,ESE,112,5.0,5.0,43,0.00,,,0.46,TxWx,2013-08-04 13:22:00,
2013-08-04 09:24:00,74.0,62.0,29.84,SE,135,5.0,5.0,67,0.00,,,0.00,TxWx,2013-08-04 13:24:00,
2013-08-04 09:27:00,78.0,54.0,29.84,East,90,5.0,6.0,44,0.00,,,0.46,TxWx,2013-08-04 13:27:00,
2013-08-04 09:29:00,74.0,62.0,29.84,SE,135,7.0,7.0,66,0.00,,,0.00,TxWx,2013-08-04 13:29:00,
2013-08-04 09:33:00,78.0,53.0,29.84,East,90,13.0,13.0,42,0.00,,,0.46,TxWx,2013-08-04 13:33:00,
2013-08-04 09:34:00,78.0,53.0,29.84,East,90,5.0,6.0,42,0.00,,,0.46,TxWx,2013-08-04 13:34:00,
2013-08-04 09:35:00,74.0,62.0,29.84,ESE,112,6.0,8.0,66,0.00,,,0.00,TxWx,2013-08-04 13:35:00,
2013-08-04 09:40:00,74.0,61.0,29.85,ESE,112,8.0,8.0,65,0.00,,,0.00,TxWx,2013-08-04 13:40:00,
2013-08-04 09:45:00,75.0,62.0,29.85,ENE,67,5.0,6.0,65,0.00,,,0.00,TxWx,2013-08-04 13:45:00,
2013-08-04 09:51:00,75.0,62.0,29.85,ENE,67,4.0,6.0,64,0.00,,,0.00,TxWx,2013-08-04 13:51:00,
2013-08-04 09:56:00,75.0,61.0,29.85,ENE,67,6.0,8.0,63,0.00,,,0.00,TxWx,2013-08-04 13:56:00,
2013-08-04 10:01:00,75.0,62.0,29.85,ENE,67,5.0,5.0,63,0.00,,,0.00,TxWx,2013-08-04 14:01:00,
2013-08-04 10:07:00,75.0,61.0,29.85,ESE,112,7.0,7.0,63,0.00,,,0.00,TxWx,2013-08-04 14:07:00,
2013-08-04 10:12:00,74.0,60.0,29.85,NE,45,4.0,6.0,63,0.00,,,0.00,TxWx,2013-08-04 14:12:00,
2013-08-04 10:17:00,75.0,62.0,29.85,East,90,4.0,5.0,64,0.00,,,0.00,TxWx,2013-08-04 14:17:00,
2013-08-04 10:22:00,75.0,62.0,29.85,SE,135,6.0,7.0,63,0.00,,,0.00,TxWx,2013-08-04 14:22:00,
2013-08-04 10:28:00,75.0,60.0,29.85,SE,135,8.0,9.0,60,0.00,,,0.00,TxWx,2013-08-04 14:28:00,
2013-08-04 10:33:00,75.0,60.0,29.85,ESE,112,6.0,7.0,60,0.00,,,0.00,TxWx,2013-08-04 14:33:00,
2013-08-04 10:38:00,76.0,60.0,29.85,ENE,67,6.0,6.0,59,0.00,,,0.00,TxWx,2013-08-04 14:38:00,
2013-08-04 10:44:00,76.0,60.0,29.85,East,90,5.0,5.0,58,0.00,,,0.00,TxWx,2013-08-04 14:44:00,
2013-08-04 10:49:00,76.0,60.0,29.86,ENE,67,7.0,10.0,58,0.00,,,0.00,TxWx,2013-08-04 14:49:00,
2013-08-04 10:54:00,76.0,60.0,29.86,East,90,9.0,11.0,58,0.00,,,0.00,TxWx,2013-08-04 14:54:00,
2013-08-04 10:59:00,76.0,60.0,29.86,NNE,22,7.0,7.0,59,0.00,,,0.00,TxWx,2013-08-04 14:59:00,
2013-08-04 11:05:00,76.0,60.0,29.86,NE,45,5.0,6.0,59,0.00,,,0.00,TxWx,2013-08-04 15:05:00,
2013-08-04 11:10:00,76.0,60.0,29.85,East,90,5.0,5.0,59,0.00,,,0.00,TxWx,2013-08-04 15:10:00,
2013-08-04 11:15:00,76.0,60.0,29.86,ENE,67,3.0,5.0,58,0.00,,,0.00,TxWx,2013-08-04 15:15:00,
2013-08-04 11:21:00,76.0,61.0,29.86,ENE,67,8.0,10.0,59,0.00,,,0.00,TxWx,2013-08-04 15:21:00,
2013-08-04 11:25:00,76.0,60.0,29.86,ENE,67,7.0,8.0,58,0.00,,,0.00,TxWx,2013-08-04 15:25:00,
2013-08-04 11:31:00,76.0,60.0,29.85,ENE,67,4.0,4.0,58,0.00,,,0.00,TxWx,2013-08-04 15:31:00,
2013-08-04 11:35:00,76.0,59.0,29.86,ENE,67,10.0,12.0,56,0.00,,,0.00,TxWx,2013-08-04 15:35:00,
2013-08-04 11:41:00,76.0,60.0,29.86,East,90,3.0,6.0,57,0.00,,,0.00,TxWx,2013-08-04 15:41:00,
2013-08-04 11:47:00,76.0,59.0,29.86,NNW,337,8.0,11.0,56,0.00,,,0.00,TxWx,2013-08-04 15:47:00,
2013-08-04 11:52:00,76.0,59.0,29.85,ENE,67,5.0,7.0,57,0.00,,,0.00,TxWx,2013-08-04 15:52:00,
2013-08-04 11:57:00,77.0,60.0,29.85,North,0,6.0,8.0,57,0.00,,,0.00,TxWx,2013-08-04 15:57:00,
2013-08-04 12:03:00,76.0,59.0,29.85,East,90,3.0,4.0,56,0.00,,,0.00,TxWx,2013-08-04 16:03:00,
2013-08-04 12:08:00,76.0,59.0,29.85,ENE,67,5.0,8.0,56,0.00,,,0.00,TxWx,2013-08-04 16:08:00,
2013-08-04 12:13:00,77.0,60.0,29.85,ESE,112,4.0,5.0,56,0.00,,,0.00,TxWx,2013-08-04 16:13:00,
2013-08-04 12:19:00,77.0,60.0,29.84,SE,135,5.0,6.0,55,0.00,,,0.00,TxWx,2013-08-04 16:19:00,
2013-08-04 12:24:00,77.0,60.0,29.84,SE,135,3.0,3.0,55,0.00,,,0.00,TxWx,2013-08-04 16:24:00,
2013-08-04 12:29:00,78.0,61.0,29.84,East,90,4.0,5.0,56,0.00,,,0.00,TxWx,2013-08-04 16:29:00,
2013-08-04 12:34:00,78.0,60.0,29.83,WSW,247,4.0,5.0,55,0.00,,,0.00,TxWx,2013-08-04 16:34:00,
2013-08-04 12:40:00,78.0,60.0,29.83,ESE,112,6.0,6.0,54,0.00,,,0.00,TxWx,2013-08-04 16:40:00,
2013-08-04 12:45:00,78.0,60.0,29.83,South,180,1.0,4.0,55,0.00,,,0.00,TxWx,2013-08-04 16:45:00,
2013-08-04 12:50:00,77.0,60.0,29.83,East,90,3.0,4.0,55,0.00,,,0.00,TxWx,2013-08-04 16:50:00,
2013-08-04 12:56:00,77.0,60.0,29.83,SE,135,3.0,5.0,56,0.00,,,0.00,TxWx,2013-08-04 16:56:00,
2013-08-04 13:01:00,77.0,60.0,29.83,South,180,3.0,5.0,56,0.00,,,0.00,TxWx,2013-08-04 17:01:00,
2013-08-04 13:06:00,78.0,60.0,29.83,SSW,202,3.0,3.0,55,0.00,,,0.00,TxWx,2013-08-04 17:06:00,
2013-08-04 13:12:00,78.0,60.0,29.82,SSE,157,8.0,9.0,55,0.00,,,0.00,TxWx,2013-08-04 17:12:00,
2013-08-04 13:17:00,78.0,60.0,29.82,SSE,157,3.0,3.0,55,0.00,,,0.00,TxWx,2013-08-04 17:17:00,
2013-08-04 13:22:00,78.0,60.0,29.82,East,90,3.0,4.0,54,0.00,,,0.00,TxWx,2013-08-04 17:22:00,
2013-08-04 13:27:00,78.0,60.0,29.82,WNW,292,3.0,4.0,55,0.00,,,0.00,TxWx,2013-08-04 17:27:00,
2013-08-04 13:33:00,77.0,60.0,29.83,ENE,67,2.0,3.0,56,0.00,,,0.00,TxWx,2013-08-04 17:33:00,
2013-08-04 13:38:00,74.0,59.0,29.86,ESE,112,7.0,11.0,60,0.00,,,0.01,TxWx,2013-08-04 17:38:00,
2013-08-04 13:43:00,69.0,58.0,29.87,SSE,157,10.0,11.0,69,0.60,,,0.19,TxWx,2013-08-04 17:43:00,
2013-08-04 13:48:00,67.0,59.0,29.86,NNE,22,4.0,5.0,75,0.60,,,0.27,TxWx,2013-08-04 17:48:00,
2013-08-04 13:53:00,66.0,59.0,29.85,NNE,22,3.0,4.0,78,0.60,,,0.31,TxWx,2013-08-04 17:53:00,
2013-08-04 13:59:00,65.0,59.0,29.85,SSE,157,1.0,1.0,81,0.60,,,0.35,TxWx,2013-08-04 17:59:00,
2013-08-04 14:04:00,65.0,60.0,29.85,WNW,292,1.0,1.0,84,0.60,,,0.38,TxWx,2013-08-04 18:04:00,
2013-08-04 14:09:00,65.0,60.0,29.85,NNW,337,2.0,3.0,85,0.60,,,0.41,TxWx,2013-08-04 18:09:00,
2013-08-04 14:14:00,66.0,62.0,29.84,ENE,67,1.0,2.0,87,0.60,,,0.43,TxWx,2013-08-04 18:14:00,
2013-08-04 14:20:00,66.0,62.0,29.84,WNW,292,2.0,2.0,88,0.60,,,0.45,TxWx,2013-08-04 18:20:00,
2013-08-04 14:25:00,67.0,63.0,29.84,SW,225,0.0,1.0,89,0.60,,,0.46,TxWx,2013-08-04 18:25:00,
2013-08-04 14:31:00,68.0,65.0,29.83,WNW,292,1.0,1.0,90,0.60,,,0.46,TxWx,2013-08-04 18:31:00,
2013-08-04 14:36:00,68.0,65.0,29.83,NNE,22,1.0,1.0,90,0.60,,,0.46,TxWx,2013-08-04 18:36:00,
2013-08-04 14:41:00,69.0,66.0,29.83,West,270,1.0,1.0,91,0.00,,,0.46,TxWx,2013-08-04 18:41:00,
2013-08-04 14:46:00,69.0,66.0,29.83,WNW,292,2.0,3.0,91,0.00,,,0.46,TxWx,2013-08-04 18:46:00,
2013-08-04 14:52:00,70.0,67.0,29.83,NNW,337,2.0,2.0,91,0.00,,,0.46,TxWx,2013-08-04 18:52:00,
2013-08-04 14:57:00,70.0,67.0,29.83,South,180,2.0,3.0,91,0.00,,,0.46,TxWx,2013-08-04 18:57:00,
2013-08-04 15:01:00,69.0,57.0,29.93,SE,135,3.0,4.0,65,0.00,,,0.00,TxWx,2013-08-04 19:01:00,
2013-08-04 15:02:00,71.0,68.0,29.83,West,270,1.0,2.0,91,0.00,,,0.46,TxWx,2013-08-04 19:02:00,
2013-08-04 15:03:00,69.0,57.0,29.93,SE,135,3.0,3.0,65,0.00,,,0.00,TxWx,2013-08-04 19:03:00,
2013-08-04 15:04:00,69.0,57.0,29.93,SE,135,2.0,3.0,65,0.00,,,0.00,TxWx,2013-08-04 19:04:00,
2013-08-04 15:05:00,69.0,57.0,29.93,South,180,1.0,3.0,65,0.00,,,0.00,TxWx,2013-08-04 19:05:00,
2013-08-04 15:07:00,72.0,70.0,29.82,NW,315,3.0,3.0,93,0.00,,,0.46,TxWx,2013-08-04 19:07:00,
2013-08-04 15:08:00,69.0,57.0,29.93,SE,135,5.0,5.0,65,0.00,,,0.00,TxWx,2013-08-04 19:08:00,
2013-08-04 15:09:00,69.0,57.0,29.93,SE,135,5.0,6.0,65,0.00,,,0.00,TxWx,2013-08-04 19:09:00,
2013-08-04 15:10:00,69.0,57.0,29.93,SSE,157,3.0,3.0,65,0.00,,,0.00,TxWx,2013-08-04 19:10:00,
2013-08-04 15:11:00,69.0,57.0,29.93,West,270,3.0,3.0,65,0.00,,,0.00,TxWx,2013-08-04 19:11:00,
2013-08-04 15:12:00,69.0,57.0,29.93,SE,135,4.0,5.0,65,0.00,,,0.00,TxWx,2013-08-04 19:12:00,
2013-08-04 15:13:00,73.0,71.0,29.82,NNW,337,1.0,2.0,92,0.00,,,0.46,TxWx,2013-08-04 19:13:00,
2013-08-04 15:14:00,69.0,57.0,29.93,East,90,3.0,4.0,65,0.00,,,0.00,TxWx,2013-08-04 19:14:00,
2013-08-04 15:15:00,69.0,57.0,29.93,SSE,157,5.0,5.0,66,0.00,,,0.00,TxWx,2013-08-04 19:15:00,
2013-08-04 15:16:00,69.0,57.0,29.93,East,90,2.0,3.0,66,0.00,,,0.00,TxWx,2013-08-04 19:16:00,
2013-08-04 15:17:00,69.0,57.0,29.93,SSE,157,3.0,3.0,66,0.00,,,0.00,TxWx,2013-08-04 19:17:00,
2013-08-04 15:18:00,74.0,72.0,29.82,SSE,157,4.0,5.0,93,0.00,,,0.46,TxWx,2013-08-04 19:18:00,
2013-08-04 15:19:00,68.0,56.0,29.93,ESE,112,5.0,5.0,66,0.00,,,0.00,TxWx,2013-08-04 19:19:00,
2013-08-04 15:20:00,68.0,56.0,29.93,ESE,112,3.0,3.0,66,0.00,,,0.00,TxWx,2013-08-04 19:20:00,
2013-08-04 15:21:00,68.0,56.0,29.93,SSW,202,4.0,4.0,66,0.00,,,0.00,TxWx,2013-08-04 19:21:00,
2013-08-04 15:22:00,68.0,56.0,29.93,SE,135,5.0,5.0,66,0.00,,,0.00,TxWx,2013-08-04 19:22:00,
2013-08-04 15:23:00,75.0,73.0,29.82,SW,225,3.0,3.0,93,0.00,,,0.46,TxWx,2013-08-04 19:23:00,
2013-08-04 15:24:00,68.0,56.0,29.93,East,90,4.0,6.0,66,0.00,,,0.00,TxWx,2013-08-04 19:24:00,
2013-08-04 15:25:00,68.0,56.0,29.93,SE,135,2.0,3.0,66,0.00,,,0.00,TxWx,2013-08-04 19:25:00,
2013-08-04 15:26:00,68.0,56.0,29.93,South,180,4.0,5.0,66,0.00,,,0.00,TxWx,2013-08-04 19:26:00,
2013-08-04 15:27:00,68.0,56.0,29.93,SW,225,3.0,3.0,66,0.00,,,0.00,TxWx,2013-08-04 19:27:00,
2013-08-04 15:28:00,68.0,56.0,29.93,SSE,157,5.0,5.0,66,0.00,,,0.00,TxWx,2013-08-04 19:28:00,
2013-08-04 15:29:00,76.0,72.0,29.82,East,90,5.0,5.0,88,0.00,,,0.46,TxWx,2013-08-04 19:29:00,
2013-08-04 15:30:00,68.0,56.0,29.93,South,180,3.0,4.0,66,0.00,,,0.00,TxWx,2013-08-04 19:30:00,
2013-08-04 15:31:00,68.0,56.0,29.93,SE,135,2.0,3.0,66,0.00,,,0.00,TxWx,2013-08-04 19:31:00,
2013-08-04 15:32:00,68.0,56.0,29.93,SSE,157,3.0,5.0,66,0.00,,,0.00,TxWx,2013-08-04 19:32:00,
2013-08-04 15:33:00,68.0,56.0,29.93,SSE,157,4.0,4.0,66,0.00,,,0.00,TxWx,2013-08-04 19:33:00,
2013-08-04 15:34:00,76.0,68.0,29.82,ESE,112,5.0,5.0,77,0.00,,,0.46,TxWx,2013-08-04 19:34:00,
2013-08-04 15:35:00,68.0,56.0,29.93,ESE,112,4.0,5.0,66,0.00,,,0.00,TxWx,2013-08-04 19:35:00,
2013-08-04 15:36:00,68.0,56.0,29.93,SSW,202,3.0,6.0,66,0.00,,,0.00,TxWx,2013-08-04 19:36:00,
2013-08-04 15:37:00,68.0,56.0,29.93,SSE,157,4.0,6.0,67,0.00,,,0.00,TxWx,2013-08-04 19:37:00,
2013-08-04 15:38:00,68.0,56.0,29.93,South,180,3.0,3.0,67,0.00,,,0.00,TxWx,2013-08-04 19:38:00,
2013-08-04 15:39:00,77.0,67.0,29.82,SE,135,5.0,5.0,71,0.00,,,0.46,TxWx,2013-08-04 19:39:00,
2013-08-04 15:40:00,68.0,56.0,29.93,SSW,202,5.0,5.0,67,0.00,,,0.00,TxWx,2013-08-04 19:40:00,
2013-08-04 15:41:00,68.0,56.0,29.93,SSW,202,4.0,5.0,67,0.00,,,0.00,TxWx,2013-08-04 19:41:00,
2013-08-04 15:42:00,68.0,56.0,29.93,South,180,5.0,5.0,67,0.00,,,0.00,TxWx,2013-08-04 19:42:00,
2013-08-04 15:43:00,68.0,56.0,29.93,SSE,157,4.0,4.0,67,0.00,,,0.00,TxWx,2013-08-04 19:43:00,
2013-08-04 15:44:00,78.0,66.0,29.82,East,90,2.0,3.0,67,0.00,,,0.46,TxWx,2013-08-04 19:44:00,
2013-08-04 15:45:00,68.0,57.0,29.93,SW,225,3.0,5.0,67,0.00,,,0.00,TxWx,2013-08-04 19:45:00,
2013-08-04 15:46:00,68.0,57.0,29.93,SSE,157,5.0,5.0,67,0.00,,,0.00,TxWx,2013-08-04 19:46:00,
2013-08-04 15:47:00,68.0,57.0,29.93,SSW,202,4.0,4.0,67,0.00,,,0.00,TxWx,2013-08-04 19:47:00,
2013-08-04 15:48:00,68.0,57.0,29.93,SE,135,3.0,3.0,67,0.00,,,0.00,TxWx,2013-08-04 19:48:00,
2013-08-04 15:49:00,68.0,57.0,29.93,SE,135,5.0,6.0,67,0.00,,,0.00,TxWx,2013-08-04 19:49:00,
2013-08-04 15:50:00,78.0,65.0,29.82,SSE,157,3.0,3.0,66,0.00,,,0.46,TxWx,2013-08-04 19:50:00,
2013-08-04 15:51:00,68.0,57.0,29.93,South,180,2.0,3.0,68,0.00,,,0.00,TxWx,2013-08-04 19:51:00,
2013-08-04 15:52:00,68.0,57.0,29.93,South,180,2.0,3.0,68,0.00,,,0.00,TxWx,2013-08-04 19:52:00,
2013-08-04 15:54:00,68.0,57.0,29.93,South,180,5.0,5.0,68,0.00,,,0.00,TxWx,2013-08-04 19:54:00,
2013-08-04 15:55:00,78.0,64.0,29.82,South,180,3.0,3.0,62,0.00,,,0.46,TxWx,2013-08-04 19:55:00,
2013-08-04 15:56:00,68.0,57.0,29.93,SE,135,3.0,3.0,68,0.00,,,0.00,TxWx,2013-08-04 19:56:00,
2013-08-04 15:57:00,68.0,57.0,29.93,South,180,2.0,3.0,68,0.00,,,0.00,TxWx,2013-08-04 19:57:00,
2013-08-04 15:59:00,68.0,57.0,29.93,SE,135,3.0,5.0,68,0.00,,,0.00,TxWx,2013-08-04 19:59:00,
2013-08-04 16:00:00,78.0,63.0,29.82,SE,135,4.0,4.0,61,0.00,,,0.46,TxWx,2013-08-04 20:00:00,
2013-08-04 16:02:00,68.0,57.0,29.93,SSE,157,3.0,4.0,69,0.00,,,0.00,TxWx,2013-08-04 20:02:00,
2013-08-04 16:03:00,68.0,57.0,29.93,SSW,202,1.0,3.0,69,0.00,,,0.00,TxWx,2013-08-04 20:03:00,
2013-08-04 16:05:00,78.0,63.0,29.81,ESE,112,3.0,3.0,61,0.00,,,0.46,TxWx,2013-08-04 20:05:00,
2013-08-04 16:07:00,68.0,57.0,29.93,ESE,112,0.0,1.0,69,0.00,,,0.00,TxWx,2013-08-04 20:07:00,
2013-08-04 16:10:00,78.0,63.0,29.81,East,90,3.0,3.0,61,0.00,,,0.46,TxWx,2013-08-04 20:10:00,
2013-08-04 16:15:00,78.0,63.0,29.81,ESE,112,6.0,7.0,61,0.00,,,0.46,TxWx,2013-08-04 20:15:00,
2013-08-04 16:20:00,78.0,62.0,29.81,East,90,5.0,6.0,59,0.00,,,0.46,TxWx,2013-08-04 20:20:00,
2013-08-04 16:25:00,79.0,64.0,29.81,North,0,8.0,8.0,60,0.00,,,0.46,TxWx,2013-08-04 20:25:00,
2013-08-04 16:31:00,79.0,63.0,29.81,East,90,6.0,6.0,58,0.00,,,0.46,TxWx,2013-08-04 20:31:00,
2013-08-04 16:36:00,79.0,63.0,29.81,ESE,112,5.0,6.0,58,0.00,,,0.46,TxWx,2013-08-04 20:36:00,
2013-08-04 16:42:00,79.0,62.0,29.81,ENE,67,6.0,6.0,57,0.00,,,0.46,TxWx,2013-08-04 20:42:00,
2013-08-04 16:46:00,79.0,62.0,29.81,East,90,7.0,8.0,57,0.00,,,0.46,TxWx,2013-08-04 20:46:00,
2013-08-04 16:51:00,79.0,62.0,29.81,East,90,3.0,3.0,57,0.00,,,0.46,TxWx,2013-08-04 20:51:00,
2013-08-04 16:57:00,80.0,64.0,29.81,East,90,4.0,5.0,59,0.00,,,0.46,TxWx,2013-08-04 20:57:00,
2013-08-04 17:02:00,79.0,64.0,29.82,ENE,67,6.0,6.0,61,0.00,,,0.46,TxWx,2013-08-04 21:02:00,
2013-08-04 17:08:00,79.0,63.0,29.82,ESE,112,4.0,6.0,59,0.00,,,0.46,TxWx,2013-08-04 21:08:00,
2013-08-04 17:13:00,79.0,61.0,29.82,ESE,112,6.0,6.0,55,0.00,,,0.46,TxWx,2013-08-04 21:13:00,
2013-08-04 17:18:00,79.0,60.0,29.82,East,90,5.0,5.0,53,0.00,,,0.46,TxWx,2013-08-04 21:18:00,
2013-08-04 17:24:00,79.0,58.0,29.82,ENE,67,8.0,9.0,50,0.00,,,0.46,TxWx,2013-08-04 21:24:00,
2013-08-04 17:29:00,80.0,58.0,29.82,SSE,157,3.0,3.0,48,0.00,,,0.46,TxWx,2013-08-04 21:29:00,
2013-08-04 17:35:00,80.0,58.0,29.82,ESE,112,4.0,5.0,48,0.00,,,0.46,TxWx,2013-08-04 21:35:00,
2013-08-04 17:40:00,79.0,56.0,29.82,East,90,6.0,6.0,45,0.00,,,0.46,TxWx,2013-08-04 21:40:00,
2013-08-04 17:45:00,79.0,55.0,29.82,East,90,8.0,11.0,45,0.00,,,0.46,TxWx,2013-08-04 21:45:00,
2013-08-04 17:50:00,79.0,55.0,29.82,NE,45,3.0,6.0,44,0.00,,,0.46,TxWx,2013-08-04 21:50:00,
2013-08-04 17:56:00,79.0,55.0,29.83,SE,135,6.0,7.0,44,0.00,,,0.46,TxWx,2013-08-04 21:56:00,
2013-08-04 18:02:00,79.0,55.0,29.83,NE,45,15.0,16.0,43,0.00,,,0.46,TxWx,2013-08-04 22:02:00,
2013-08-04 18:07:00,79.0,55.0,29.83,ESE,112,6.0,10.0,44,0.00,,,0.46,TxWx,2013-08-04 22:07:00,
2013-08-04 18:12:00,79.0,55.0,29.83,East,90,13.0,13.0,43,0.00,,,0.46,TxWx,2013-08-04 22:12:00,
2013-08-04 18:17:00,78.0,54.0,29.83,ENE,67,3.0,6.0,44,0.00,,,0.46,TxWx,2013-08-04 22:17:00,
2013-08-04 18:23:00,78.0,54.0,29.83,East,90,12.0,12.0,43,0.00,,,0.46,TxWx,2013-08-04 22:23:00,
2013-08-04 18:28:00,78.0,54.0,29.84,ENE,67,3.0,5.0,44,0.00,,,0.46,TxWx,2013-08-04 22:28:00,
2013-08-04 18:33:00,78.0,53.0,29.84,ESE,112,5.0,6.0,42,0.00,,,0.46,TxWx,2013-08-04 22:33:00,
2013-08-04 18:39:00,78.0,53.0,29.84,East,90,8.0,10.0,43,0.00,,,0.46,TxWx,2013-08-04 22:39:00,
2013-08-04 18:44:00,78.0,54.0,29.84,SSE,157,9.0,9.0,43,0.00,,,0.46,TxWx,2013-08-04 22:44:00,
2013-08-04 18:49:00,77.0,53.0,29.85,East,90,9.0,10.0,44,0.00,,,0.46,TxWx,2013-08-04 22:49:00,
2013-08-04 18:54:00,77.0,54.0,29.85,ESE,112,11.0,11.0,45,0.00,,,0.46,TxWx,2013-08-04 22:54:00,
2013-08-04 18:59:00,77.0,54.0,29.85,ENE,67,3.0,5.0,46,0.00,,,0.46,TxWx,2013-08-04 22:59:00,
2013-08-04 19:05:00,77.0,55.0,29.85,East,90,7.0,7.0,47,0.00,,,0.46,TxWx,2013-08-04 23:05:00,
2013-08-04 19:10:00,77.0,55.0,29.86,SSE,157,6.0,9.0,47,0.00,,,0.46,TxWx,2013-08-04 23:10:00,
2013-08-04 19:15:00,76.0,55.0,29.86,ESE,112,3.0,6.0,48,0.00,,,0.46,TxWx,2013-08-04 23:15:00,
2013-08-04 19:21:00,76.0,55.0,29.86,SE,135,6.0,6.0,49,0.00,,,0.46,TxWx,2013-08-04 23:21:00,
2013-08-04 19:26:00,76.0,55.0,29.86,East,90,7.0,9.0,49,0.00,,,0.46,TxWx,2013-08-04 23:26:00,
2013-08-04 19:31:00,76.0,56.0,29.87,WSW,247,4.0,6.0,50,0.00,,,0.46,TxWx,2013-08-04 23:31:00,
2013-08-04 19:37:00,75.0,55.0,29.87,East,90,7.0,9.0,51,0.00,,,0.46,TxWx,2013-08-04 23:37:00,
2013-08-04 19:42:00,75.0,56.0,29.87,ESE,112,6.0,8.0,51,0.00,,,0.46,TxWx,2013-08-04 23:42:00,
2013-08-04 19:47:00,75.0,56.0,29.87,ENE,67,9.0,9.0,51,0.00,,,0.46,TxWx,2013-08-04 23:47:00,
2013-08-04 19:52:00,75.0,56.0,29.88,East,90,5.0,5.0,52,0.00,,,0.46,TxWx,2013-08-04 23:52:00,
2013-08-04 19:57:00,74.0,55.0,29.88,SE,135,7.0,7.0,53,0.00,,,0.46,TxWx,2013-08-04 23:57:00,
2013-08-04 20:03:00,74.0,56.0,29.88,SE,135,4.0,5.0,53,0.00,,,0.46,TxWx,2013-08-05 00:03:00,
2013-08-04 20:08:00,74.0,56.0,29.88,ESE,112,5.0,5.0,54,0.00,,,0.46,TxWx,2013-08-05 00:08:00,
2013-08-04 20:13:00,74.0,56.0,29.89,SE,135,3.0,4.0,54,0.00,,,0.46,TxWx,2013-08-05 00:13:00,
2013-08-04 20:19:00,73.0,56.0,29.89,SE,135,5.0,6.0,55,0.00,,,0.46,TxWx,2013-08-05 00:19:00,
2013-08-04 20:24:00,73.0,56.0,29.89,East,90,5.0,5.0,55,0.00,,,0.46,TxWx,2013-08-05 00:24:00,
2013-08-04 20:29:00,73.0,56.0,29.89,ENE,67,3.0,3.0,56,0.00,,,0.46,TxWx,2013-08-05 00:29:00,
2013-08-04 20:35:00,73.0,56.0,29.89,ENE,67,1.0,3.0,56,0.00,,,0.46,TxWx,2013-08-05 00:35:00,
2013-08-04 20:40:00,72.0,55.0,29.89,SE,135,6.0,6.0,56,0.00,,,0.46,TxWx,2013-08-05 00:40:00,
2013-08-04 20:45:00,72.0,55.0,29.89,ESE,112,5.0,5.0,56,0.00,,,0.46,TxWx,2013-08-05 00:45:00,
2013-08-04 20:50:00,72.0,56.0,29.90,SSE,157,4.0,5.0,57,0.00,,,0.46,TxWx,2013-08-05 00:50:00,
2013-08-04 20:55:00,72.0,56.0,29.90,South,180,2.0,5.0,57,0.00,,,0.46,TxWx,2013-08-05 00:55:00,
2013-08-04 21:00:00,72.0,56.0,29.90,SSE,157,2.0,3.0,57,0.00,,,0.46,TxWx,2013-08-05 01:00:00,
2013-08-04 21:05:00,71.0,55.0,29.90,South,180,3.0,3.0,58,0.00,,,0.46,TxWx,2013-08-05 01:05:00,
2013-08-04 21:10:00,71.0,56.0,29.90,South,180,5.0,5.0,59,0.00,,,0.46,TxWx,2013-08-05 01:10:00,
2013-08-04 21:16:00,71.0,56.0,29.91,SE,135,5.0,6.0,59,0.00,,,0.46,TxWx,2013-08-05 01:16:00,
2013-08-04 21:21:00,71.0,56.0,29.91,SSE,157,3.0,3.0,59,0.00,,,0.46,TxWx,2013-08-05 01:21:00,
2013-08-04 21:26:00,71.0,56.0,29.91,West,270,1.0,3.0,60,0.00,,,0.46,TxWx,2013-08-05 01:26:00,
2013-08-04 21:31:00,71.0,56.0,29.91,SE,135,3.0,4.0,60,0.00,,,0.46,TxWx,2013-08-05 01:31:00,
2013-08-04 21:37:00,71.0,57.0,29.92,ESE,112,5.0,5.0,61,0.00,,,0.46,TxWx,2013-08-05 01:37:00,
2013-08-04 21:42:00,70.0,56.0,29.91,SE,135,5.0,5.0,62,0.00,,,0.46,TxWx,2013-08-05 01:42:00,
2013-08-04 21:48:00,70.0,56.0,29.92,ESE,112,3.0,3.0,62,0.00,,,0.46,TxWx,2013-08-05 01:48:00,
2013-08-04 21:53:00,70.0,56.0,29.92,SSW,202,5.0,5.0,62,0.00,,,0.46,TxWx,2013-08-05 01:53:00,
2013-08-04 21:58:00,70.0,56.0,29.92,SE,135,6.0,6.0,62,0.00,,,0.46,TxWx,2013-08-05 01:58:00,
2013-08-04 22:03:00,70.0,56.0,29.92,SE,135,3.0,3.0,62,0.00,,,0.46,TxWx,2013-08-05 02:03:00,
2013-08-04 22:08:00,70.0,57.0,29.92,East,90,5.0,6.0,63,0.00,,,0.46,TxWx,2013-08-05 02:08:00,
2013-08-04 22:12:00,70.0,57.0,29.92,SE,135,5.0,5.0,63,0.00,,,0.46,TxWx,2013-08-05 02:12:00,
2013-08-04 22:18:00,70.0,57.0,29.92,East,90,6.0,6.0,63,0.00,,,0.46,TxWx,2013-08-05 02:18:00,
2013-08-04 22:23:00,70.0,57.0,29.92,ESE,112,6.0,7.0,63,0.00,,,0.46,TxWx,2013-08-05 02:23:00,
2013-08-04 22:28:00,69.0,56.0,29.92,East,90,3.0,4.0,63,0.00,,,0.46,TxWx,2013-08-05 02:28:00,
2013-08-04 22:33:00,69.0,56.0,29.92,SE,135,4.0,4.0,63,0.00,,,0.46,TxWx,2013-08-05 02:33:00,
2013-08-04 22:38:00,69.0,56.0,29.92,South,180,2.0,2.0,63,0.00,,,0.46,TxWx,2013-08-05 02:38:00,
2013-08-04 22:44:00,69.0,56.0,29.92,ESE,112,2.0,3.0,64,0.00,,,0.46,TxWx,2013-08-05 02:44:00,
2013-08-04 22:48:00,69.0,56.0,29.93,ENE,67,6.0,7.0,64,0.00,,,0.46,TxWx,2013-08-05 02:48:00,
2013-08-04 22:54:00,69.0,56.0,29.93,East,90,4.0,5.0,64,0.00,,,0.46,TxWx,2013-08-05 02:54:00,
2013-08-04 22:59:00,69.0,56.0,29.92,SE,135,9.0,9.0,64,0.00,,,0.46,TxWx,2013-08-05 02:59:00,
2013-08-04 23:04:00,69.0,56.0,29.92,East,90,6.0,6.0,64,0.00,,,0.46,TxWx,2013-08-05 03:04:00,
2013-08-04 23:10:00,69.0,56.0,29.92,ESE,112,5.0,5.0,64,0.00,,,0.46,TxWx,2013-08-05 03:10:00,
2013-08-04 23:15:00,69.0,56.0,29.92,South,180,5.0,5.0,65,0.00,,,0.46,TxWx,2013-08-05 03:15:00,
2013-08-04 23:20:00,69.0,57.0,29.93,SE,135,3.0,3.0,65,0.00,,,0.46,TxWx,2013-08-05 03:20:00,
2013-08-04 23:26:00,69.0,57.0,29.93,ESE,112,3.0,4.0,65,0.00,,,0.46,TxWx,2013-08-05 03:26:00,
2013-08-04 23:31:00,69.0,57.0,29.93,SSE,157,1.0,2.0,66,0.00,,,0.46,TxWx,2013-08-05 03:31:00,
2013-08-04 23:36:00,69.0,57.0,29.93,South,180,1.0,2.0,65,0.00,,,0.46,TxWx,2013-08-05 03:36:00,
2013-08-04 23:41:00,69.0,57.0,29.93,South,180,3.0,4.0,65,0.00,,,0.46,TxWx,2013-08-05 03:41:00,
2013-08-04 23:47:00,69.0,57.0,29.93,South,180,3.0,3.0,65,0.00,,,0.46,TxWx,2013-08-05 03:47:00,
2013-08-04 23:52:00,69.0,57.0,29.93,East,90,6.0,6.0,65,0.00,,,0.46,TxWx,2013-08-05 03:52:00,
2013-08-04 23:58:00,69.0,57.0,29.93,WSW,247,3.0,4.0,65,0.00,,,0.46,TxWx,2013-08-05 03:58:00,